User: anonymous   Login
Location: Waning Moon II Observatory
(30.3730°N, 89.7620°W)
Time: 00:47:44
(UTC-05:00)
Language:

Meteor 1-21 - Orbit

View from above orbital plane
View from above orbital plane
View from above satellite
View from above satellite

Ground track
Ground track

The orbit data is extracted from the following two-line orbital elements,

1 07714U 75023A   15141.66040146  .00000187  00000-0  10258-3 0  9990
2 07714 081.2134 209.2312 0028819 231.5955 128.2626 14.07897568378591
Epoch (UTC): 21 May 2015 15:50:58
Eccentricity: 0.0028819
inclination: 81.2134°
perigee height: 845 km
apogee height: 887 km
right ascension of ascending node: 209.2312°
argument of perigee: 231.5955°
revolutions per day: 14.07897568
mean anomaly at epoch: 128.2626°
orbit number at epoch: 37859

The dashed part of the orbit path shows where the satellite is in the earth's shadow,  

DLR